Year,Month,Day,Hour,Minute,Value (Times are PST for temperature in C)
2008,06,17,00,00,14.60
2008,06,17,00,01,14.60
2008,06,17,00,02,14.60
2008,06,17,00,03,14.60
2008,06,17,00,04,14.60
2008,06,17,00,05,14.60
2008,06,17,00,06,14.60
2008,06,17,00,07,14.60
2008,06,17,00,08,14.60
2008,06,17,00,09,14.60
2008,06,17,00,10,14.60
2008,06,17,00,11,14.60
2008,06,17,00,12,14.60
2008,06,17,00,13,14.60
2008,06,17,00,14,14.60
2008,06,17,00,15,14.60
2008,06,17,00,16,14.50
2008,06,17,00,17,14.50
2008,06,17,00,18,14.50
2008,06,17,00,19,14.50
2008,06,17,00,20,14.50
2008,06,17,00,21,14.50
2008,06,17,00,22,14.50
2008,06,17,00,23,14.50
2008,06,17,00,24,14.50
2008,06,17,00,25,14.50
2008,06,17,00,26,14.50
2008,06,17,00,27,14.40
2008,06,17,00,28,14.40
2008,06,17,00,29,14.40
2008,06,17,00,30,14.40
2008,06,17,00,31,14.40
2008,06,17,00,32,14.40
2008,06,17,00,33,14.30
2008,06,17,00,34,14.30
2008,06,17,00,35,14.30
2008,06,17,00,36,14.20
2008,06,17,00,37,14.20
2008,06,17,00,38,14.20
2008,06,17,00,39,14.10
2008,06,17,00,40,14.10
2008,06,17,00,41,14.00
2008,06,17,00,42,13.90
2008,06,17,00,43,13.80
2008,06,17,00,44,13.70
2008,06,17,00,45,13.60
2008,06,17,00,46,13.50
2008,06,17,00,47,13.50
2008,06,17,00,48,13.40
2008,06,17,00,49,13.40
2008,06,17,00,50,13.40
2008,06,17,00,51,13.40
2008,06,17,00,52,13.40
2008,06,17,00,53,13.40
2008,06,17,00,54,13.40
2008,06,17,00,55,13.40
2008,06,17,00,56,13.30
2008,06,17,00,57,13.20
2008,06,17,00,58,13.10
2008,06,17,00,59,13.00
2008,06,17,01,00,12.90
2008,06,17,01,01,12.80
2008,06,17,01,02,12.70
2008,06,17,01,03,12.60
2008,06,17,01,04,12.60
2008,06,17,01,05,12.50
2008,06,17,01,06,12.50
2008,06,17,01,07,12.40
2008,06,17,01,08,12.40
2008,06,17,01,09,12.30
2008,06,17,01,10,12.30
2008,06,17,01,11,12.30
2008,06,17,01,12,12.30
2008,06,17,01,13,12.30
2008,06,17,01,14,12.30
2008,06,17,01,15,12.30
2008,06,17,01,16,12.30
2008,06,17,01,17,12.30
2008,06,17,01,18,12.30
2008,06,17,01,19,12.30
2008,06,17,01,20,12.20
2008,06,17,01,21,12.20
2008,06,17,01,22,12.20
2008,06,17,01,23,12.10
2008,06,17,01,24,12.10
2008,06,17,01,25,12.10
2008,06,17,01,26,12.00
2008,06,17,01,27,12.00
2008,06,17,01,28,12.00
2008,06,17,01,29,11.90
2008,06,17,01,30,11.90
2008,06,17,01,31,11.90
2008,06,17,01,32,11.90
2008,06,17,01,33,11.90
2008,06,17,01,34,11.90
2008,06,17,01,35,11.90
2008,06,17,01,36,11.90
2008,06,17,01,37,11.90
2008,06,17,01,38,11.90
2008,06,17,01,39,11.90
2008,06,17,01,40,11.90
2008,06,17,01,41,12.00
2008,06,17,01,42,12.10
2008,06,17,01,43,12.10
2008,06,17,01,44,12.10
2008,06,17,01,45,12.20
2008,06,17,01,46,12.20
2008,06,17,01,47,12.30
2008,06,17,01,48,12.30
2008,06,17,01,49,12.30
2008,06,17,01,50,12.40
2008,06,17,01,51,12.40
2008,06,17,01,52,12.40
2008,06,17,01,53,12.30
2008,06,17,01,54,12.30
2008,06,17,01,55,12.20
2008,06,17,01,56,12.10
2008,06,17,01,57,12.00
2008,06,17,01,58,11.90
2008,06,17,01,59,11.90
2008,06,17,02,00,11.80
2008,06,17,02,01,11.80
2008,06,17,02,02,11.70
2008,06,17,02,03,11.60
2008,06,17,02,04,11.50
2008,06,17,02,05,11.50
2008,06,17,02,06,11.40
2008,06,17,02,07,11.40
2008,06,17,02,08,11.30
2008,06,17,02,09,11.30
2008,06,17,02,10,11.20
2008,06,17,02,11,11.20
2008,06,17,02,12,11.10
2008,06,17,02,13,11.10
2008,06,17,02,14,11.10
2008,06,17,02,15,11.10
2008,06,17,02,16,11.10
2008,06,17,02,17,11.10
2008,06,17,02,18,11.10
2008,06,17,02,19,11.10
2008,06,17,02,20,11.10
2008,06,17,02,21,11.10
2008,06,17,02,22,11.10
2008,06,17,02,23,11.10
2008,06,17,02,24,11.10
2008,06,17,02,25,11.10
2008,06,17,02,26,11.20
2008,06,17,02,27,11.20
2008,06,17,02,28,11.20
2008,06,17,02,29,11.20
2008,06,17,02,30,11.20
2008,06,17,02,31,11.20
2008,06,17,02,32,11.20
2008,06,17,02,33,11.20
2008,06,17,02,34,11.20
2008,06,17,02,35,11.20
2008,06,17,02,36,11.20
2008,06,17,02,37,11.20
2008,06,17,02,38,11.20
2008,06,17,02,39,11.20
2008,06,17,02,40,11.20
2008,06,17,02,41,11.10
2008,06,17,02,42,11.10
2008,06,17,02,43,11.10
2008,06,17,02,44,11.10
2008,06,17,02,45,11.10
2008,06,17,02,46,11.10
2008,06,17,02,47,11.20
2008,06,17,02,48,11.20
2008,06,17,02,49,11.20
2008,06,17,02,50,11.20
2008,06,17,02,51,11.20
2008,06,17,02,52,11.10
2008,06,17,02,53,11.10
2008,06,17,02,54,11.10
2008,06,17,02,55,11.00
2008,06,17,02,56,11.00
2008,06,17,02,57,11.00
2008,06,17,02,58,10.90
2008,06,17,02,59,10.90
2008,06,17,03,00,10.90
2008,06,17,03,01,10.90
2008,06,17,03,02,11.00
2008,06,17,03,03,11.00
2008,06,17,03,04,11.10
2008,06,17,03,05,11.10
2008,06,17,03,06,11.10
2008,06,17,03,07,11.20
2008,06,17,03,08,11.20
2008,06,17,03,09,11.20
2008,06,17,03,10,11.20
2008,06,17,03,11,11.20
2008,06,17,03,12,11.10
2008,06,17,03,13,11.10
2008,06,17,03,14,11.00
2008,06,17,03,15,10.90
2008,06,17,03,16,10.90
2008,06,17,03,17,10.80
2008,06,17,03,18,10.80
2008,06,17,03,19,10.70
2008,06,17,03,20,10.70
2008,06,17,03,21,10.70
2008,06,17,03,22,10.70
2008,06,17,03,23,10.70
2008,06,17,03,24,10.70
2008,06,17,03,25,10.70
2008,06,17,03,26,10.70
2008,06,17,03,27,10.70
2008,06,17,03,28,10.70
2008,06,17,03,29,10.60
2008,06,17,03,30,10.60
2008,06,17,03,31,10.60
2008,06,17,03,32,10.60
2008,06,17,03,33,10.60
2008,06,17,03,34,10.60
2008,06,17,03,35,10.60
2008,06,17,03,36,10.60
2008,06,17,03,37,10.50
2008,06,17,03,38,10.50
2008,06,17,03,39,10.50
2008,06,17,03,40,10.40
2008,06,17,03,41,10.40
2008,06,17,03,42,10.40
2008,06,17,03,43,10.40
2008,06,17,03,44,10.40
2008,06,17,03,45,10.40
2008,06,17,03,46,10.40
2008,06,17,03,47,10.40
2008,06,17,03,48,10.40
2008,06,17,03,49,10.40
2008,06,17,03,50,10.30
2008,06,17,03,51,10.30
2008,06,17,03,52,10.30
2008,06,17,03,53,10.30
2008,06,17,03,54,10.30
2008,06,17,03,55,10.30
2008,06,17,03,56,10.30
2008,06,17,03,57,10.30
2008,06,17,03,58,10.30
2008,06,17,03,59,10.30
2008,06,17,04,00,10.30
2008,06,17,04,01,10.30
2008,06,17,04,02,10.20
2008,06,17,04,03,10.20
2008,06,17,04,04,10.20
2008,06,17,04,05,10.10
2008,06,17,04,06,10.10
2008,06,17,04,07,10.00
2008,06,17,04,08,10.00
2008,06,17,04,09,10.00
2008,06,17,04,10,10.00
2008,06,17,04,11,9.90
2008,06,17,04,12,9.90
2008,06,17,04,13,9.90
2008,06,17,04,14,9.80
2008,06,17,04,15,9.80
2008,06,17,04,16,9.80
2008,06,17,04,17,9.80
2008,06,17,04,18,9.80
2008,06,17,04,19,9.80
2008,06,17,04,20,9.80
2008,06,17,04,21,9.80
2008,06,17,04,22,9.80
2008,06,17,04,23,9.80
2008,06,17,04,24,9.80
2008,06,17,04,25,9.70
2008,06,17,04,26,9.70
2008,06,17,04,27,9.60
2008,06,17,04,28,9.60
2008,06,17,04,29,9.60
2008,06,17,04,30,9.60
2008,06,17,04,31,9.60
2008,06,17,04,32,9.60
2008,06,17,04,33,9.60
2008,06,17,04,34,9.60
2008,06,17,04,35,9.60
2008,06,17,04,36,9.60
2008,06,17,04,37,9.60
2008,06,17,04,38,9.60
2008,06,17,04,39,9.60
2008,06,17,04,40,9.60
2008,06,17,04,41,9.60
2008,06,17,04,42,9.60
2008,06,17,04,43,9.70
2008,06,17,04,44,9.70
2008,06,17,04,45,9.70
2008,06,17,04,46,9.70
2008,06,17,04,47,9.80
2008,06,17,04,48,9.80
2008,06,17,04,49,9.80
2008,06,17,04,50,9.80
2008,06,17,04,51,9.80
2008,06,17,04,52,9.80
2008,06,17,04,53,9.90
2008,06,17,04,54,9.90
2008,06,17,04,55,10.00
2008,06,17,04,56,10.00
2008,06,17,04,57,10.00
2008,06,17,04,58,10.10
2008,06,17,04,59,10.10
2008,06,17,05,00,10.20
2008,06,17,05,01,10.20
2008,06,17,05,02,10.20
2008,06,17,05,03,10.30
2008,06,17,05,04,10.30
2008,06,17,05,05,10.30
2008,06,17,05,06,10.30
2008,06,17,05,07,10.30
2008,06,17,05,08,10.40
2008,06,17,05,09,10.40
2008,06,17,05,10,10.40
2008,06,17,05,11,10.40
2008,06,17,05,12,10.40
2008,06,17,05,13,10.40
2008,06,17,05,14,10.40
2008,06,17,05,15,10.40
2008,06,17,05,16,10.40
2008,06,17,05,17,10.40
2008,06,17,05,18,10.40
2008,06,17,05,19,10.40
2008,06,17,05,20,10.40
2008,06,17,05,21,10.40
2008,06,17,05,22,10.40
2008,06,17,05,23,10.40
2008,06,17,05,24,10.40
2008,06,17,05,25,10.40
2008,06,17,05,26,10.40
2008,06,17,05,27,10.40
2008,06,17,05,28,10.40
2008,06,17,05,29,10.40
2008,06,17,05,30,10.40
2008,06,17,05,31,10.50
2008,06,17,05,32,10.40
2008,06,17,05,33,10.40
2008,06,17,05,34,10.40
2008,06,17,05,35,10.50
2008,06,17,05,36,10.50
2008,06,17,05,37,10.40
2008,06,17,05,38,10.50
2008,06,17,05,39,10.50
2008,06,17,05,40,10.50
2008,06,17,05,41,10.50
2008,06,17,05,42,10.50
2008,06,17,05,43,10.50
2008,06,17,05,44,10.50
2008,06,17,05,45,10.60
2008,06,17,05,46,10.60
2008,06,17,05,47,10.60
2008,06,17,05,48,10.60
2008,06,17,05,49,10.50
2008,06,17,05,50,10.50
2008,06,17,05,51,10.50
2008,06,17,05,52,10.50
2008,06,17,05,53,10.50
2008,06,17,05,54,10.40
2008,06,17,05,55,10.40
2008,06,17,05,56,10.40
2008,06,17,05,57,10.30
2008,06,17,05,58,10.30
2008,06,17,05,59,10.30
2008,06,17,06,00,10.30
2008,06,17,06,01,10.20
2008,06,17,06,02,10.20
2008,06,17,06,03,10.20
2008,06,17,06,04,10.20
2008,06,17,06,05,10.20
2008,06,17,06,06,10.20
2008,06,17,06,07,10.10
2008,06,17,06,08,10.10
2008,06,17,06,09,10.10
2008,06,17,06,10,10.10
2008,06,17,06,11,10.10
2008,06,17,06,12,10.10
2008,06,17,06,13,10.10
2008,06,17,06,14,10.10
2008,06,17,06,15,10.10
2008,06,17,06,16,10.10
2008,06,17,06,17,10.10
2008,06,17,06,18,10.10
2008,06,17,06,19,10.10
2008,06,17,06,20,10.10
2008,06,17,06,21,10.10
2008,06,17,06,22,10.20
2008,06,17,06,23,10.20
2008,06,17,06,24,10.20
2008,06,17,06,25,10.20
2008,06,17,06,26,10.30
2008,06,17,06,27,10.30
2008,06,17,06,28,10.30
2008,06,17,06,29,10.30
2008,06,17,06,30,10.30
2008,06,17,06,31,10.30
2008,06,17,06,32,10.30
2008,06,17,06,33,10.30
2008,06,17,06,34,10.40
2008,06,17,06,35,10.40
2008,06,17,06,36,10.40
2008,06,17,06,37,10.40
2008,06,17,06,38,10.40
2008,06,17,06,39,10.40
2008,06,17,06,40,10.40
2008,06,17,06,41,10.40
2008,06,17,06,42,10.40
2008,06,17,06,43,10.50
2008,06,17,06,44,10.50
2008,06,17,06,45,10.50
2008,06,17,06,46,10.60
2008,06,17,06,47,10.60
2008,06,17,06,48,10.70
2008,06,17,06,49,10.70
2008,06,17,06,50,10.80
2008,06,17,06,51,10.80
2008,06,17,06,52,10.90
2008,06,17,06,53,11.00
2008,06,17,06,54,11.00
2008,06,17,06,55,11.20
2008,06,17,06,56,11.20
2008,06,17,06,57,11.20
2008,06,17,06,58,11.30
2008,06,17,06,59,11.30
2008,06,17,07,00,11.40
2008,06,17,07,01,11.40
2008,06,17,07,02,11.40
2008,06,17,07,03,11.40
2008,06,17,07,04,11.40
2008,06,17,07,05,11.50
2008,06,17,07,06,11.50
2008,06,17,07,07,11.60
2008,06,17,07,08,11.60
2008,06,17,07,09,11.70
2008,06,17,07,10,11.70
2008,06,17,07,11,11.70
2008,06,17,07,12,11.70
2008,06,17,07,13,11.80
2008,06,17,07,14,11.80
2008,06,17,07,15,11.80
2008,06,17,07,16,11.90
2008,06,17,07,17,11.90
2008,06,17,07,18,11.90
2008,06,17,07,19,11.90
2008,06,17,07,20,11.90
2008,06,17,07,21,11.90
2008,06,17,07,22,11.90
2008,06,17,07,23,11.90
2008,06,17,07,24,12.00
2008,06,17,07,25,12.00
2008,06,17,07,26,12.10
2008,06,17,07,27,12.10
2008,06,17,07,28,12.10
2008,06,17,07,29,12.20
2008,06,17,07,30,12.30
2008,06,17,07,31,12.30
2008,06,17,07,32,12.40
2008,06,17,07,33,12.50
2008,06,17,07,34,12.60
2008,06,17,07,35,12.60
2008,06,17,07,36,12.70
2008,06,17,07,37,12.70
2008,06,17,07,38,12.70
2008,06,17,07,39,12.80
2008,06,17,07,40,12.80
2008,06,17,07,41,12.90
2008,06,17,07,42,12.90
2008,06,17,07,43,12.90
2008,06,17,07,44,12.90
2008,06,17,07,45,12.90
2008,06,17,07,46,12.90
2008,06,17,07,47,13.00
2008,06,17,07,48,13.00
2008,06,17,07,49,13.00
2008,06,17,07,50,13.00
2008,06,17,07,51,13.00
2008,06,17,07,52,12.90
2008,06,17,07,53,13.00
2008,06,17,07,54,12.90
2008,06,17,07,55,13.00
2008,06,17,07,56,13.00
2008,06,17,07,57,13.00
2008,06,17,07,58,13.00
2008,06,17,07,59,13.10
2008,06,17,08,00,13.10
2008,06,17,08,01,13.10
2008,06,17,08,02,13.10
2008,06,17,08,03,13.10
2008,06,17,08,04,13.10
2008,06,17,08,05,13.20
2008,06,17,08,06,13.20
2008,06,17,08,07,13.20
2008,06,17,08,08,13.20
2008,06,17,08,09,13.20
2008,06,17,08,10,13.20
2008,06,17,08,11,13.20
2008,06,17,08,12,13.20
2008,06,17,08,13,13.20
2008,06,17,08,14,13.20
2008,06,17,08,15,13.20
2008,06,17,08,16,13.30
2008,06,17,08,17,13.30
2008,06,17,08,18,13.30
2008,06,17,08,19,13.30
2008,06,17,08,20,13.40
2008,06,17,08,21,13.40
2008,06,17,08,22,13.50
2008,06,17,08,23,13.60
2008,06,17,08,24,13.60
2008,06,17,08,25,13.50
2008,06,17,08,26,13.40
2008,06,17,08,27,13.40
2008,06,17,08,28,13.40
2008,06,17,08,29,13.50
2008,06,17,08,30,13.50
2008,06,17,08,31,13.50
2008,06,17,08,32,13.50
2008,06,17,08,33,13.50
2008,06,17,08,34,13.40
2008,06,17,08,35,13.40
2008,06,17,08,36,13.30
2008,06,17,08,37,13.30
2008,06,17,08,38,13.20
2008,06,17,08,39,13.20
2008,06,17,08,40,13.20
2008,06,17,08,41,13.20
2008,06,17,08,42,13.10
2008,06,17,08,43,13.20
2008,06,17,08,44,13.10
2008,06,17,08,45,13.10
2008,06,17,08,46,13.20
2008,06,17,08,47,13.20
2008,06,17,08,48,13.20
2008,06,17,08,49,13.20
2008,06,17,08,50,13.20
2008,06,17,08,51,13.10
2008,06,17,08,52,13.10
2008,06,17,08,53,13.10
2008,06,17,08,54,13.10
2008,06,17,08,55,13.10
2008,06,17,08,56,13.10
2008,06,17,08,57,13.10
2008,06,17,08,58,13.10
2008,06,17,08,59,13.00
2008,06,17,09,00,13.00
2008,06,17,09,01,12.90
2008,06,17,09,02,12.90
2008,06,17,09,03,13.00
2008,06,17,09,04,13.00
2008,06,17,09,05,13.00
2008,06,17,09,06,13.00
2008,06,17,09,07,13.10
2008,06,17,09,08,13.10
2008,06,17,09,09,13.10
2008,06,17,09,10,13.10
2008,06,17,09,11,13.10
2008,06,17,09,12,13.10
2008,06,17,09,13,13.10
2008,06,17,09,14,13.10
2008,06,17,09,15,13.10
2008,06,17,09,16,13.10
2008,06,17,09,17,13.10
2008,06,17,09,18,13.10
2008,06,17,09,19,13.20
2008,06,17,09,20,13.20
2008,06,17,09,21,13.20
2008,06,17,09,22,13.20
2008,06,17,09,23,13.20
2008,06,17,09,24,13.20
2008,06,17,09,25,13.20
2008,06,17,09,26,13.20
2008,06,17,09,27,13.30
2008,06,17,09,28,13.30
2008,06,17,09,29,13.30
2008,06,17,09,30,13.30
2008,06,17,09,31,13.40
2008,06,17,09,32,13.40
2008,06,17,09,33,13.40
2008,06,17,09,34,13.40
2008,06,17,09,35,13.40
2008,06,17,09,36,13.50
2008,06,17,09,37,13.50
2008,06,17,09,38,13.60
2008,06,17,09,39,13.60
2008,06,17,09,40,13.60
2008,06,17,09,41,13.60
2008,06,17,09,42,13.60
2008,06,17,09,43,13.70
2008,06,17,09,44,13.80
2008,06,17,09,45,13.80
2008,06,17,09,46,13.90
2008,06,17,09,47,14.00
2008,06,17,09,48,14.00
2008,06,17,09,49,14.10
2008,06,17,09,50,14.10
2008,06,17,09,51,14.10
2008,06,17,09,52,14.10
2008,06,17,09,53,14.10
2008,06,17,09,54,14.10
2008,06,17,09,55,14.00
2008,06,17,09,56,13.90
2008,06,17,09,57,13.80
2008,06,17,09,58,13.80
2008,06,17,09,59,13.80
2008,06,17,10,00,13.80
2008,06,17,10,01,13.80
2008,06,17,10,02,13.80
2008,06,17,10,03,13.80
2008,06,17,10,04,13.90
2008,06,17,10,05,13.90
2008,06,17,10,06,14.00
2008,06,17,10,07,14.00
2008,06,17,10,08,14.10
2008,06,17,10,09,14.10
2008,06,17,10,10,14.10
2008,06,17,10,11,14.20
2008,06,17,10,12,14.20
2008,06,17,10,13,14.20
2008,06,17,10,14,14.10
2008,06,17,10,15,14.10
2008,06,17,10,16,14.00
2008,06,17,10,17,14.00
2008,06,17,10,18,14.00
2008,06,17,10,19,14.10
2008,06,17,10,20,14.10
2008,06,17,10,21,14.10
2008,06,17,10,22,14.10
2008,06,17,10,23,14.20
2008,06,17,10,24,14.20
2008,06,17,10,25,14.30
2008,06,17,10,26,14.30
2008,06,17,10,27,14.40
2008,06,17,10,28,14.40
2008,06,17,10,29,14.50
2008,06,17,10,30,14.50
2008,06,17,10,31,14.50
2008,06,17,10,32,14.60
2008,06,17,10,33,14.60
2008,06,17,10,34,14.60
2008,06,17,10,35,14.60
2008,06,17,10,36,14.60
2008,06,17,10,37,14.60
2008,06,17,10,38,14.70
2008,06,17,10,39,14.60
2008,06,17,10,40,14.60
2008,06,17,10,41,14.70
2008,06,17,10,42,14.70
2008,06,17,10,43,14.80
2008,06,17,10,44,14.80
2008,06,17,10,45,14.90
2008,06,17,10,46,15.00
2008,06,17,10,47,15.00
2008,06,17,10,48,15.00
2008,06,17,10,49,15.00
2008,06,17,10,50,15.10
2008,06,17,10,51,15.20
2008,06,17,10,52,15.20
2008,06,17,10,53,15.20
2008,06,17,10,54,15.10
2008,06,17,10,55,15.20
2008,06,17,10,56,15.30
2008,06,17,10,57,15.30
2008,06,17,10,58,15.20
2008,06,17,10,59,15.30
2008,06,17,11,00,15.30
2008,06,17,11,01,15.30
2008,06,17,11,02,15.30
2008,06,17,11,03,15.20
2008,06,17,11,04,15.20
2008,06,17,11,05,15.20
2008,06,17,11,06,15.30
2008,06,17,11,07,15.30
2008,06,17,11,08,15.30
2008,06,17,11,09,15.30
2008,06,17,11,10,15.30
2008,06,17,11,11,15.30
2008,06,17,11,12,15.30
2008,06,17,11,13,15.30
2008,06,17,11,14,15.20
2008,06,17,11,15,15.20
2008,06,17,11,16,15.20
2008,06,17,11,17,15.10
2008,06,17,11,18,15.00
2008,06,17,11,19,15.00
2008,06,17,11,20,15.00
2008,06,17,11,21,15.00
2008,06,17,11,22,15.00
2008,06,17,11,23,14.90
2008,06,17,11,24,14.90
2008,06,17,11,25,14.80
2008,06,17,11,26,14.80
2008,06,17,11,27,14.80
2008,06,17,11,28,14.70
2008,06,17,11,29,14.70
2008,06,17,11,30,14.60
2008,06,17,11,31,14.60
2008,06,17,11,32,14.60
2008,06,17,11,33,14.70
2008,06,17,11,34,14.70
2008,06,17,11,35,14.70
2008,06,17,11,36,14.80
2008,06,17,11,37,14.70
2008,06,17,11,38,14.60
2008,06,17,11,39,14.60
2008,06,17,11,40,14.60
2008,06,17,11,41,14.50
2008,06,17,11,42,14.40
2008,06,17,11,43,14.30
2008,06,17,11,44,14.20
2008,06,17,11,45,14.20
2008,06,17,11,46,14.10
2008,06,17,11,47,14.00
2008,06,17,11,48,13.90
2008,06,17,11,49,13.80
2008,06,17,11,50,13.80
2008,06,17,11,51,13.70
2008,06,17,11,52,13.70
2008,06,17,11,53,13.60
2008,06,17,11,54,13.60
2008,06,17,11,55,13.50
2008,06,17,11,56,13.50
2008,06,17,11,57,13.50
2008,06,17,11,58,13.50
2008,06,17,11,59,13.50
2008,06,17,12,00,13.60
2008,06,17,12,01,13.60
2008,06,17,12,02,13.60
2008,06,17,12,03,13.60
2008,06,17,12,04,13.50
2008,06,17,12,05,13.50
2008,06,17,12,06,13.40
2008,06,17,12,07,13.50
2008,06,17,12,08,13.50
2008,06,17,12,09,13.50
2008,06,17,12,10,13.60
2008,06,17,12,11,13.60
2008,06,17,12,12,13.60
2008,06,17,12,13,13.50
2008,06,17,12,14,13.50
2008,06,17,12,15,13.50
2008,06,17,12,16,13.50
2008,06,17,12,17,13.50
2008,06,17,12,18,13.40
2008,06,17,12,19,13.30
2008,06,17,12,20,13.40
2008,06,17,12,21,13.40
2008,06,17,12,22,13.40
2008,06,17,12,23,13.40
2008,06,17,12,24,13.50
2008,06,17,12,25,13.50
2008,06,17,12,26,13.60
2008,06,17,12,27,13.70
2008,06,17,12,28,13.70
2008,06,17,12,29,13.80
2008,06,17,12,30,13.90
2008,06,17,12,31,13.90
2008,06,17,12,32,14.00
2008,06,17,12,33,14.00
2008,06,17,12,34,14.10
2008,06,17,12,35,14.10
2008,06,17,12,36,14.10
2008,06,17,12,37,14.20
2008,06,17,12,38,14.30
2008,06,17,12,39,14.30
2008,06,17,12,40,14.30
2008,06,17,12,41,14.40
2008,06,17,12,42,14.50
2008,06,17,12,43,14.50
2008,06,17,12,44,14.60
2008,06,17,12,45,14.60
2008,06,17,12,46,14.70
2008,06,17,12,47,14.70
2008,06,17,12,48,14.60
2008,06,17,12,49,14.60
2008,06,17,12,50,14.60
2008,06,17,12,51,14.50
2008,06,17,12,52,14.50
2008,06,17,12,53,14.40
2008,06,17,12,54,14.30
2008,06,17,12,55,14.20
2008,06,17,12,56,14.00
2008,06,17,12,57,13.90
2008,06,17,12,58,13.90
2008,06,17,12,59,13.80
2008,06,17,13,00,13.70
2008,06,17,13,01,13.50
2008,06,17,13,02,13.50
2008,06,17,13,03,13.50
2008,06,17,13,04,13.50
2008,06,17,13,05,13.60
2008,06,17,13,06,13.60
2008,06,17,13,07,13.70
2008,06,17,13,08,13.70
2008,06,17,13,09,13.80
2008,06,17,13,10,13.80
2008,06,17,13,11,13.90
2008,06,17,13,12,14.00
2008,06,17,13,13,14.00
2008,06,17,13,14,14.00
2008,06,17,13,15,14.00
2008,06,17,13,16,13.90
2008,06,17,13,17,13.90
2008,06,17,13,18,13.80
2008,06,17,13,19,13.90
2008,06,17,13,20,13.90
2008,06,17,13,21,14.00
2008,06,17,13,22,14.00
2008,06,17,13,23,14.00
2008,06,17,13,24,14.00
2008,06,17,13,25,14.00
2008,06,17,13,26,13.90
2008,06,17,13,27,13.90
2008,06,17,13,28,13.90
2008,06,17,13,29,13.90
2008,06,17,13,30,13.90
2008,06,17,13,31,14.00
2008,06,17,13,32,14.00
2008,06,17,13,33,14.00
2008,06,17,13,34,14.10
2008,06,17,13,35,14.20
2008,06,17,13,36,14.30
2008,06,17,13,37,14.40
2008,06,17,13,38,14.50
2008,06,17,13,39,14.60
2008,06,17,13,40,14.80
2008,06,17,13,41,14.80
2008,06,17,13,42,14.80
2008,06,17,13,43,14.90
2008,06,17,13,44,15.00
2008,06,17,13,45,15.00
2008,06,17,13,46,15.20
2008,06,17,13,47,15.30
2008,06,17,13,48,15.40
2008,06,17,13,49,15.50
2008,06,17,13,50,15.50
2008,06,17,13,51,15.40
2008,06,17,13,52,15.50
2008,06,17,13,53,15.50
2008,06,17,13,54,15.50
2008,06,17,13,55,15.50
2008,06,17,13,56,15.20
2008,06,17,13,57,15.00
2008,06,17,13,58,15.00
2008,06,17,13,59,15.00
2008,06,17,14,00,15.00
2008,06,17,14,01,14.90
2008,06,17,14,02,15.00
2008,06,17,14,03,15.00
2008,06,17,14,04,15.00
2008,06,17,14,05,15.00
2008,06,17,14,06,15.00
2008,06,17,14,07,15.10
2008,06,17,14,08,15.30
2008,06,17,14,09,15.40
2008,06,17,14,10,15.50
2008,06,17,14,11,15.50
2008,06,17,14,12,15.50
2008,06,17,14,13,15.50
2008,06,17,14,14,15.50
2008,06,17,14,15,15.50
2008,06,17,14,16,15.40
2008,06,17,14,17,15.40
2008,06,17,14,18,15.40
2008,06,17,14,19,15.40
2008,06,17,14,20,15.40
2008,06,17,14,21,15.40
2008,06,17,14,22,15.40
2008,06,17,14,23,15.40
2008,06,17,14,24,15.40
2008,06,17,14,25,15.20
2008,06,17,14,26,15.20
2008,06,17,14,27,15.20
2008,06,17,14,28,15.20
2008,06,17,14,29,15.20
2008,06,17,14,30,15.10
2008,06,17,14,31,15.10
2008,06,17,14,32,15.10
2008,06,17,14,33,15.10
2008,06,17,14,34,15.10
2008,06,17,14,35,15.10
2008,06,17,14,36,15.00
2008,06,17,14,37,15.00
2008,06,17,14,38,15.00
2008,06,17,14,39,15.00
2008,06,17,14,40,15.00
2008,06,17,14,41,15.10
2008,06,17,14,42,15.10
2008,06,17,14,43,15.10
2008,06,17,14,44,15.00
2008,06,17,14,45,15.00
2008,06,17,14,46,15.00
2008,06,17,14,47,14.90
2008,06,17,14,48,14.80
2008,06,17,14,49,14.80
2008,06,17,14,50,14.80
2008,06,17,14,51,14.80
2008,06,17,14,52,14.90
2008,06,17,14,53,15.00
2008,06,17,14,54,15.30
2008,06,17,14,55,15.50
2008,06,17,14,56,15.50
2008,06,17,14,57,15.60
2008,06,17,14,58,15.50
2008,06,17,14,59,15.60
2008,06,17,15,00,15.70
2008,06,17,15,01,15.80
2008,06,17,15,02,15.90
2008,06,17,15,03,16.00
2008,06,17,15,04,16.10
2008,06,17,15,05,16.00
2008,06,17,15,06,15.80
2008,06,17,15,07,15.80
2008,06,17,15,08,15.90
2008,06,17,15,09,15.90
2008,06,17,15,10,16.00
2008,06,17,15,11,16.10
2008,06,17,15,12,16.10
2008,06,17,15,13,16.30
2008,06,17,15,14,16.30
2008,06,17,15,15,16.30
2008,06,17,15,16,16.10
2008,06,17,15,17,16.10
2008,06,17,15,18,16.10
2008,06,17,15,19,15.90
2008,06,17,15,20,15.90
2008,06,17,15,21,15.90
2008,06,17,15,22,15.80
2008,06,17,15,23,15.80
2008,06,17,15,24,15.80
2008,06,17,15,25,15.80
2008,06,17,15,26,15.70
2008,06,17,15,27,15.60
2008,06,17,15,28,15.60
2008,06,17,15,29,15.60
2008,06,17,15,30,15.60
2008,06,17,15,31,15.70
2008,06,17,15,32,15.70
2008,06,17,15,33,15.70
2008,06,17,15,34,15.80
2008,06,17,15,35,15.80
2008,06,17,15,36,15.90
2008,06,17,15,37,15.90
2008,06,17,15,38,15.80
2008,06,17,15,39,15.80
2008,06,17,15,40,15.70
2008,06,17,15,41,15.60
2008,06,17,15,42,15.60
2008,06,17,15,43,15.50
2008,06,17,15,44,15.60
2008,06,17,15,45,15.70
2008,06,17,15,46,15.70
2008,06,17,15,47,15.80
2008,06,17,15,48,15.90
2008,06,17,15,49,15.90
2008,06,17,15,50,15.90
2008,06,17,15,51,15.90
2008,06,17,15,52,16.00
2008,06,17,15,53,16.10
2008,06,17,15,54,16.20
2008,06,17,15,55,16.30
2008,06,17,15,56,16.40
2008,06,17,15,57,16.50
2008,06,17,15,58,16.60
2008,06,17,15,59,16.60
2008,06,17,16,00,16.70
2008,06,17,16,01,16.70
2008,06,17,16,02,16.70
2008,06,17,16,03,16.70
2008,06,17,16,04,16.70
2008,06,17,16,05,16.70
2008,06,17,16,06,16.80
2008,06,17,16,07,16.90
2008,06,17,16,08,17.00
2008,06,17,16,09,17.10
2008,06,17,16,10,17.20
2008,06,17,16,11,17.30
2008,06,17,16,12,17.30
2008,06,17,16,13,17.30
2008,06,17,16,14,17.40
2008,06,17,16,15,17.50
2008,06,17,16,16,17.50
2008,06,17,16,17,17.50
2008,06,17,16,18,17.60
2008,06,17,16,19,17.60
2008,06,17,16,20,17.60
2008,06,17,16,21,17.50
2008,06,17,16,22,17.40
2008,06,17,16,23,17.30
2008,06,17,16,24,17.30
2008,06,17,16,25,17.30
2008,06,17,16,26,17.30
2008,06,17,16,27,17.20
2008,06,17,16,28,17.20
2008,06,17,16,29,17.20
2008,06,17,16,30,17.10
2008,06,17,16,31,17.10
2008,06,17,16,32,17.20
2008,06,17,16,33,17.30
2008,06,17,16,34,17.30
2008,06,17,16,35,17.30
2008,06,17,16,36,17.30
2008,06,17,16,37,17.30
2008,06,17,16,38,17.40
2008,06,17,16,39,17.40
2008,06,17,16,40,17.40
2008,06,17,16,41,17.40
2008,06,17,16,42,17.30
2008,06,17,16,43,17.30
2008,06,17,16,44,17.20
2008,06,17,16,45,17.20
2008,06,17,16,46,17.00
2008,06,17,16,47,16.80
2008,06,17,16,48,16.70
2008,06,17,16,49,16.60
2008,06,17,16,50,16.50
2008,06,17,16,51,16.40
2008,06,17,16,52,16.30
2008,06,17,16,53,16.30
2008,06,17,16,54,16.20
2008,06,17,16,55,16.10
2008,06,17,16,56,16.10
2008,06,17,16,57,16.00
2008,06,17,16,58,15.90
2008,06,17,16,59,15.90
2008,06,17,17,00,15.80
2008,06,17,17,01,15.70
2008,06,17,17,02,15.60
2008,06,17,17,03,15.60
2008,06,17,17,04,15.50
2008,06,17,17,05,15.50
2008,06,17,17,06,15.50
2008,06,17,17,07,15.50
2008,06,17,17,08,15.50
2008,06,17,17,09,15.40
2008,06,17,17,10,15.40
2008,06,17,17,11,15.40
2008,06,17,17,12,15.40
2008,06,17,17,13,15.30
2008,06,17,17,14,15.30
2008,06,17,17,15,15.30
2008,06,17,17,16,15.30
2008,06,17,17,17,15.30
2008,06,17,17,18,15.30
2008,06,17,17,19,15.30
2008,06,17,17,20,15.30
2008,06,17,17,21,15.20